Muncie, IN

2:57 AM EST on November 20, 2017 (GMT -0500)
Delaware County-Johnson

Weather History for KMIE - December, 2012

Change the Weather History Date:

Wednesday, December 12, 2012

  Actual Average Record
Temperature  
Mean Temperature 34 °F 31 °F  
Max Temperature 42 °F 39 °F 71 °F (2015)
Min Temperature 25 °F 24 °F -9 °F (1962)
Degree Days  
Heating Degree Days 31 34  
Month to date heating degree days 244 379  
Since 1 July heating degree days 1500 1514  
Cooling Degree Days 0 0  
Month to date cooling degree days 0 0  
Year to date cooling degree days 1149 956  
Moisture  
Dew Point 22 °F    
Average Humidity 63    
Maximum Humidity 81    
Minimum Humidity 45    
Precipitation  
Precipitation 0.00 in 0.09 in 0.77 in (1983)
Month to date precipitation 1.28 1.17  
Year to date precipitation 31.85 38.41  
Sea Level Pressure  
Sea Level Pressure 30.34 in    
Wind  
Wind Speed 5 mph (SSW)    
Max Wind Speed 12 mph    
Max Gust Speed 14 mph    
Visibility 10 miles    
Events      
T = Trace of Precipitation, MM = Missing Value Source: NWS Daily Summary

Daily Weather History Graph

Daily Weather History Graph

Search for Another Location

Airport or City:

Trip Planner

Search our weather history database for the weather conditions in past years. The results will help you decide how hot, cold, wet, or windy it might be!

Date:

Astronomy

Dec. 12, 2012 Rise Set
Actual Time 7:55 AM EST 5:15 PM EST
Civil Twilight 7:24 AM EST 5:46 PM EST
Nautical Twilight 6:50 AM EST 6:20 PM EST
Astronomical Twilight 6:17 AM EST 6:53 PM EST
Moon 6:58 AM EST (12/12) 4:52 PM EST (12/12)
Length of Visible Light 10h 21m
Length of Day
9h 20m
Waning Crescent, 1% of the Moon is Illuminated
Dec 12
Waning Crescent
Dec 13
New
Dec 20
First Quarter
Dec 28
Full
Jan 4
Last Quarter

Hourly Weather History & Observations

Time (EST) Temp. Windchill Dew Point Humidity Pressure Visibility Wind Dir Wind Speed Gust Speed Precip Events Conditions
12:53 AM 27.0 °F 20.5 °F 21.0 °F 78% 30.24 in 10.0 mi SW 5.8 mph - N/A   Clear
1:53 AM 27.0 °F 19.5 °F 21.0 °F 78% 30.25 in 10.0 mi SW 6.9 mph - N/A   Clear
2:53 AM 27.0 °F 20.5 °F 19.9 °F 75% 30.27 in 10.0 mi SW 5.8 mph - N/A   Clear
3:53 AM 27.0 °F 21.6 °F 19.9 °F 75% 30.28 in 10.0 mi SW 4.6 mph - N/A   Clear
4:53 AM 27.0 °F 21.6 °F 19.9 °F 75% 30.30 in 10.0 mi SSW 4.6 mph - N/A   Clear
5:53 AM 26.1 °F 19.4 °F 19.9 °F 78% 30.31 in 10.0 mi SSW 5.8 mph - N/A   Clear
6:53 AM 26.1 °F 18.4 °F 19.9 °F 78% 30.33 in 8.0 mi South 6.9 mph - N/A   Clear
7:53 AM 25.0 °F 19.3 °F 19.9 °F 81% 30.35 in 7.0 mi South 4.6 mph - N/A   Clear
8:53 AM 27.0 °F 19.5 °F 21.0 °F 78% 30.35 in 7.0 mi SSW 6.9 mph - N/A   Clear
9:53 AM 30.9 °F 24.3 °F 21.9 °F 69% 30.37 in 10.0 mi South 6.9 mph - N/A   Clear
10:53 AM 35.1 °F 31.0 °F 23.0 °F 61% 30.39 in 10.0 mi SW 4.6 mph - N/A   Clear
11:53 AM 37.9 °F 34.4 °F 23.0 °F 55% 30.38 in 10.0 mi South 4.6 mph - N/A   Clear
12:53 PM 39.0 °F 33.4 °F 23.0 °F 53% 30.37 in 10.0 mi SSW 8.1 mph - N/A   Clear
1:53 PM 39.9 °F 34.5 °F 25.0 °F 55% 30.36 in 10.0 mi South 8.1 mph - N/A   Clear
2:53 PM 41.0 °F 38.0 °F 24.1 °F 51% 30.35 in 10.0 mi SW 4.6 mph - N/A   Clear
3:53 PM 41.0 °F 37.1 °F 21.9 °F 47% 30.35 in 10.0 mi South 5.8 mph - N/A   Clear
4:53 PM 39.9 °F 35.1 °F 23.0 °F 51% 30.35 in 10.0 mi South 6.9 mph - N/A   Clear
5:53 PM 37.0 °F 34.5 °F 23.0 °F 57% 30.36 in 10.0 mi South 3.5 mph - N/A   Clear
6:53 PM 35.1 °F - 23.0 °F 61% 30.37 in 10.0 mi Calm Calm - N/A   Clear
7:53 PM 33.1 °F 28.7 °F 23.0 °F 66% 30.38 in 10.0 mi South 4.6 mph - N/A   Clear
8:53 PM 33.1 °F 28.7 °F 23.0 °F 66% 30.39 in 10.0 mi South 4.6 mph - N/A   Clear
9:53 PM 33.1 °F 28.7 °F 21.9 °F 64% 30.39 in 10.0 mi South 4.6 mph - N/A   Clear
10:53 PM 32.0 °F 27.5 °F 21.9 °F 66% 30.39 in 10.0 mi South 4.6 mph - N/A   Clear
11:53 PM 30.9 °F 27.5 °F 21.9 °F 69% 30.38 in 10.0 mi SSE 3.5 mph - N/A   Clear